Find Starlink 34904

NORAD ID: 65274 Int'l Des: 2025-184 Owner: SPXS Country: US Constellation: starlink operational
LEOCIRCULARRETROGRADESSO

Aktuelle Ansicht

3D-Globus wird geladen...

Über Starlink 34904

Beschreibung wird geladen...

Nächste Überflüge

Passes for default location (London). Set your location on the main map for personalized predictions.

Höhenverlauf

Loading altitude history...

Zweizeiliger Elementsatz

1 65274U 25184B 26149.73558700 .00010546 00000-0 73359-3 0 9997
2 65274 97.4267 202.0413 0002414 102.8589 257.2908 15.05663175 43499
Epoch: 29. Mai 2026 • Age: 17 hours

Aktueller Status

Höhe 578.8 km
Geschwindigkeit 7.57 km/s
Subsatellitenpunkt -77.82°S, 63.49°W
Startdatum 22. Aug. 2025
Alter 0.7 years
Typ internet

Technische Details

Klassifizierung Payload
Masse 575.00 kg
Trockenmasse 530.00 kg
Gesamtmasse 575.00 kg
Länge 0.30 m
Durchmesser 4.10 m
Spannweite 29.00 m
Form Box + pan
Hersteller SPXS
Bus-Typ Starlink V2MO
Phasenstatus In Orbit
Besitzer/Staat SPXS/US

Most Searched